Year,Month,Day,Hour,Minute,Value (Times are PST for temperature in C)
2015,09,14,00,01,15.00
2015,09,14,00,02,14.90
2015,09,14,00,03,14.90
2015,09,14,00,04,14.90
2015,09,14,00,06,14.80
2015,09,14,00,07,14.80
2015,09,14,00,09,14.80
2015,09,14,00,10,14.80
2015,09,14,00,12,14.70
2015,09,14,00,13,14.70
2015,09,14,00,14,14.60
2015,09,14,00,16,14.50
2015,09,14,00,17,14.40
2015,09,14,00,18,14.40
2015,09,14,00,19,14.30
2015,09,14,00,21,14.20
2015,09,14,00,22,14.20
2015,09,14,00,23,14.20
2015,09,14,00,24,14.20
2015,09,14,00,26,14.20
2015,09,14,00,27,14.20
2015,09,14,00,28,14.20
2015,09,14,00,29,14.20
2015,09,14,00,31,14.20
2015,09,14,00,32,14.20
2015,09,14,00,33,14.20
2015,09,14,00,34,14.20
2015,09,14,00,36,14.20
2015,09,14,00,37,14.20
2015,09,14,00,38,14.30
2015,09,14,00,39,14.30
2015,09,14,00,41,14.40
2015,09,14,00,42,14.40
2015,09,14,00,43,14.50
2015,09,14,00,44,14.50
2015,09,14,00,46,14.60
2015,09,14,00,47,14.70
2015,09,14,00,48,14.70
2015,09,14,00,49,14.70
2015,09,14,00,51,14.80
2015,09,14,00,52,14.80
2015,09,14,00,53,14.80
2015,09,14,00,54,14.80
2015,09,14,00,56,14.80
2015,09,14,00,57,14.80
2015,09,14,00,58,14.80
2015,09,14,00,59,14.80
2015,09,14,01,01,14.70
2015,09,14,01,02,14.80
2015,09,14,01,03,14.70
2015,09,14,01,04,14.70
2015,09,14,01,06,14.60
2015,09,14,01,07,14.60
2015,09,14,01,08,14.50
2015,09,14,01,09,14.40
2015,09,14,01,11,14.30
2015,09,14,01,12,14.20
2015,09,14,01,13,14.20
2015,09,14,01,14,14.20
2015,09,14,01,16,14.20
2015,09,14,01,17,14.20
2015,09,14,01,18,14.10
2015,09,14,01,19,14.10
2015,09,14,01,21,14.10
2015,09,14,01,22,14.20
2015,09,14,01,23,14.20
2015,09,14,01,24,14.20
2015,09,14,01,26,14.30
2015,09,14,01,27,14.40
2015,09,14,01,28,14.40
2015,09,14,01,29,14.50
2015,09,14,01,31,14.70
2015,09,14,01,32,14.70
2015,09,14,01,33,14.80
2015,09,14,01,34,14.80
2015,09,14,01,36,14.90
2015,09,14,01,37,14.90
2015,09,14,01,38,15.00
2015,09,14,01,39,15.10
2015,09,14,01,41,15.20
2015,09,14,01,42,15.20
2015,09,14,01,43,15.30
2015,09,14,01,44,15.30
2015,09,14,01,45,15.30
2015,09,14,01,46,15.40
2015,09,14,01,47,15.40
2015,09,14,01,48,15.50
2015,09,14,01,49,15.50
2015,09,14,01,50,15.60
2015,09,14,01,51,15.60
2015,09,14,01,52,15.60
2015,09,14,01,53,15.70
2015,09,14,01,54,15.60
2015,09,14,01,55,15.60
2015,09,14,01,56,15.60
2015,09,14,01,57,15.50
2015,09,14,01,58,15.50
2015,09,14,01,59,15.40
2015,09,14,02,00,15.40
2015,09,14,02,01,15.30
2015,09,14,02,02,15.30
2015,09,14,02,03,15.30
2015,09,14,02,04,15.30
2015,09,14,02,05,15.30
2015,09,14,02,06,15.30
2015,09,14,02,07,15.30
2015,09,14,02,08,15.20
2015,09,14,02,09,15.20
2015,09,14,02,10,15.30
2015,09,14,02,11,15.30
2015,09,14,02,12,15.30
2015,09,14,02,13,15.30
2015,09,14,02,14,15.40
2015,09,14,02,15,15.50
2015,09,14,02,16,15.50
2015,09,14,02,17,15.60
2015,09,14,02,18,15.60
2015,09,14,02,19,15.70
2015,09,14,02,20,15.70
2015,09,14,02,21,15.60
2015,09,14,02,22,15.60
2015,09,14,02,23,15.50
2015,09,14,02,24,15.50
2015,09,14,02,25,15.40
2015,09,14,02,26,15.30
2015,09,14,02,27,15.30
2015,09,14,02,29,15.00
2015,09,14,02,31,14.90
2015,09,14,02,32,14.80
2015,09,14,02,33,14.80
2015,09,14,02,34,14.80
2015,09,14,02,36,14.70
2015,09,14,02,37,14.70
2015,09,14,02,38,14.70
2015,09,14,02,39,14.70
2015,09,14,02,41,14.70
2015,09,14,02,42,14.60
2015,09,14,02,43,14.60
2015,09,14,02,44,14.60
2015,09,14,02,46,14.60
2015,09,14,02,47,14.50
2015,09,14,02,48,14.50
2015,09,14,02,49,14.50
2015,09,14,02,51,14.40
2015,09,14,02,52,14.40
2015,09,14,02,53,14.40
2015,09,14,02,54,14.40
2015,09,14,02,56,14.30
2015,09,14,02,57,14.30
2015,09,14,02,58,14.30
2015,09,14,02,59,14.30
2015,09,14,03,01,14.30
2015,09,14,03,02,14.30
2015,09,14,03,03,14.30
2015,09,14,03,04,14.30
2015,09,14,03,06,14.20
2015,09,14,03,07,14.20
2015,09,14,03,08,14.20
2015,09,14,03,09,14.30
2015,09,14,03,11,14.30
2015,09,14,03,12,14.40
2015,09,14,03,13,14.50
2015,09,14,03,14,14.60
2015,09,14,03,16,14.80
2015,09,14,03,17,14.80
2015,09,14,03,18,14.80
2015,09,14,03,19,14.90
2015,09,14,03,21,15.10
2015,09,14,03,22,15.10
2015,09,14,03,23,15.20
2015,09,14,03,24,15.30
2015,09,14,03,26,15.30
2015,09,14,03,27,15.30
2015,09,14,03,28,15.40
2015,09,14,03,29,15.40
2015,09,14,03,31,15.50
2015,09,14,03,32,15.50
2015,09,14,03,33,15.50
2015,09,14,03,34,15.50
2015,09,14,03,36,15.50
2015,09,14,03,37,15.50
2015,09,14,03,38,15.50
2015,09,14,03,39,15.50
2015,09,14,03,41,15.50
2015,09,14,03,42,15.50
2015,09,14,03,43,15.50
2015,09,14,03,44,15.50
2015,09,14,03,46,15.50
2015,09,14,03,47,15.50
2015,09,14,03,48,15.50
2015,09,14,03,49,15.50
2015,09,14,03,51,15.40
2015,09,14,03,52,15.40
2015,09,14,03,53,15.40
2015,09,14,03,54,15.40
2015,09,14,03,56,15.40
2015,09,14,03,57,15.40
2015,09,14,03,58,15.50
2015,09,14,03,59,15.50
2015,09,14,04,01,15.50
2015,09,14,04,02,15.50
2015,09,14,04,03,15.50
2015,09,14,04,04,15.50
2015,09,14,04,06,15.60
2015,09,14,04,07,15.50
2015,09,14,04,08,15.50
2015,09,14,04,09,15.50
2015,09,14,04,11,15.40
2015,09,14,04,12,15.40
2015,09,14,04,13,15.30
2015,09,14,04,14,15.30
2015,09,14,04,16,15.30
2015,09,14,04,17,15.30
2015,09,14,04,18,15.30
2015,09,14,04,19,15.30
2015,09,14,04,20,15.30
2015,09,14,04,21,15.30
2015,09,14,04,22,15.20
2015,09,14,04,23,15.20
2015,09,14,04,24,15.30
2015,09,14,04,25,15.30
2015,09,14,04,26,15.30
2015,09,14,04,27,15.30
2015,09,14,04,28,15.30
2015,09,14,04,29,15.30
2015,09,14,04,30,15.30
2015,09,14,04,31,15.30
2015,09,14,04,32,15.30
2015,09,14,04,33,15.30
2015,09,14,04,34,15.30
2015,09,14,04,35,15.30
2015,09,14,04,36,15.30
2015,09,14,04,37,15.30
2015,09,14,04,38,15.30
2015,09,14,04,39,15.30
2015,09,14,04,40,15.30
2015,09,14,04,41,15.30
2015,09,14,04,42,15.30
2015,09,14,04,43,15.30
2015,09,14,04,44,15.30
2015,09,14,04,45,15.30
2015,09,14,04,46,15.30
2015,09,14,04,47,15.30
2015,09,14,04,48,15.30
2015,09,14,04,49,15.30
2015,09,14,04,50,15.30
2015,09,14,04,51,15.30
2015,09,14,04,52,15.30
2015,09,14,04,53,15.30
2015,09,14,04,54,15.30
2015,09,14,04,56,15.30
2015,09,14,04,57,15.30
2015,09,14,04,58,15.30
2015,09,14,04,59,15.30
2015,09,14,05,01,15.20
2015,09,14,05,02,15.20
2015,09,14,05,03,15.10
2015,09,14,05,04,15.10
2015,09,14,05,06,15.00
2015,09,14,05,07,14.90
2015,09,14,05,08,14.90
2015,09,14,05,09,14.90
2015,09,14,05,11,14.80
2015,09,14,05,12,14.80
2015,09,14,05,13,14.80
2015,09,14,05,14,14.80
2015,09,14,05,16,14.80
2015,09,14,05,17,14.80
2015,09,14,05,18,14.70
2015,09,14,05,19,14.70
2015,09,14,05,21,14.70
2015,09,14,05,22,14.70
2015,09,14,05,23,14.70
2015,09,14,05,24,14.70
2015,09,14,05,26,14.60
2015,09,14,05,27,14.60
2015,09,14,05,28,14.60
2015,09,14,05,29,14.60
2015,09,14,05,31,14.50
2015,09,14,05,32,14.50
2015,09,14,05,33,14.50
2015,09,14,05,34,14.40
2015,09,14,05,36,14.40
2015,09,14,05,37,14.40
2015,09,14,05,38,14.40
2015,09,14,05,39,14.30
2015,09,14,05,41,14.30
2015,09,14,05,42,14.30
2015,09,14,05,43,14.30
2015,09,14,05,44,14.20
2015,09,14,05,46,14.20
2015,09,14,05,47,14.20
2015,09,14,05,48,14.20
2015,09,14,05,49,14.20
2015,09,14,05,51,14.10
2015,09,14,05,52,14.10
2015,09,14,05,53,14.00
2015,09,14,05,54,14.00
2015,09,14,05,56,13.90
2015,09,14,05,57,13.90
2015,09,14,05,58,13.80
2015,09,14,05,59,13.80
2015,09,14,06,01,13.70
2015,09,14,06,02,13.70
2015,09,14,06,03,13.70
2015,09,14,06,04,13.70
2015,09,14,06,06,13.70
2015,09,14,06,07,13.70
2015,09,14,06,08,13.60
2015,09,14,06,09,13.60
2015,09,14,06,11,13.60
2015,09,14,06,12,13.60
2015,09,14,06,13,13.60
2015,09,14,06,14,13.50
2015,09,14,06,16,13.50
2015,09,14,06,17,13.40
2015,09,14,06,18,13.40
2015,09,14,06,19,13.40
2015,09,14,06,21,13.30
2015,09,14,06,22,13.30
2015,09,14,06,23,13.30
2015,09,14,06,24,13.30
2015,09,14,06,26,13.30
2015,09,14,06,27,13.20
2015,09,14,06,28,13.20
2015,09,14,06,29,13.20
2015,09,14,06,31,13.10
2015,09,14,06,32,13.10
2015,09,14,06,33,13.10
2015,09,14,06,34,13.10
2015,09,14,06,36,13.00
2015,09,14,06,37,13.00
2015,09,14,06,38,13.00
2015,09,14,06,39,13.00
2015,09,14,06,41,12.90
2015,09,14,06,42,12.90
2015,09,14,06,43,12.90
2015,09,14,06,44,12.90
2015,09,14,06,45,12.80
2015,09,14,06,46,12.80
2015,09,14,06,47,12.80
2015,09,14,06,48,12.80
2015,09,14,06,49,12.80
2015,09,14,06,50,12.80
2015,09,14,06,51,12.80
2015,09,14,06,52,12.80
2015,09,14,06,53,12.80
2015,09,14,06,54,12.70
2015,09,14,06,55,12.70
2015,09,14,06,56,12.70
2015,09,14,06,57,12.70
2015,09,14,06,58,12.60
2015,09,14,06,59,12.60
2015,09,14,07,00,12.60
2015,09,14,07,01,12.60
2015,09,14,07,02,12.60
2015,09,14,07,04,12.50
2015,09,14,07,06,12.50
2015,09,14,07,07,12.50
2015,09,14,07,08,12.50
2015,09,14,07,09,12.50
2015,09,14,07,11,12.60
2015,09,14,07,12,12.60
2015,09,14,07,13,12.60
2015,09,14,07,14,12.60
2015,09,14,07,16,12.60
2015,09,14,07,17,12.60
2015,09,14,07,18,12.60
2015,09,14,07,19,12.60
2015,09,14,07,21,12.60
2015,09,14,07,22,12.60
2015,09,14,07,23,12.60
2015,09,14,07,24,12.60
2015,09,14,07,26,12.60
2015,09,14,07,27,12.50
2015,09,14,07,28,12.50
2015,09,14,07,29,12.50
2015,09,14,07,31,12.50
2015,09,14,07,32,12.50
2015,09,14,07,33,12.40
2015,09,14,07,34,12.40
2015,09,14,07,36,12.40
2015,09,14,07,37,12.30
2015,09,14,07,38,12.30
2015,09,14,07,39,12.30
2015,09,14,07,41,12.30
2015,09,14,07,42,12.30
2015,09,14,07,43,12.30
2015,09,14,07,44,12.30
2015,09,14,07,46,12.20
2015,09,14,07,47,12.20
2015,09,14,07,48,12.20
2015,09,14,07,49,12.20
2015,09,14,07,51,12.20
2015,09,14,07,52,12.10
2015,09,14,07,53,12.10
2015,09,14,07,54,12.10
2015,09,14,07,56,12.00
2015,09,14,07,57,12.00
2015,09,14,07,58,12.00
2015,09,14,07,59,12.00
2015,09,14,08,01,11.90
2015,09,14,08,02,11.90
2015,09,14,08,03,11.90
2015,09,14,08,04,11.90
2015,09,14,08,06,11.90
2015,09,14,08,07,11.80
2015,09,14,08,08,11.80
2015,09,14,08,09,11.80
2015,09,14,08,11,11.80
2015,09,14,08,12,11.80
2015,09,14,08,13,11.80
2015,09,14,08,14,11.70
2015,09,14,08,16,11.70
2015,09,14,08,17,11.70
2015,09,14,08,18,11.60
2015,09,14,08,19,11.60
2015,09,14,08,21,11.60
2015,09,14,08,22,11.60
2015,09,14,08,23,11.60
2015,09,14,08,24,11.60
2015,09,14,08,26,11.60
2015,09,14,08,27,11.60
2015,09,14,08,28,11.60
2015,09,14,08,29,11.60
2015,09,14,08,31,11.60
2015,09,14,08,32,11.60
2015,09,14,08,33,11.60
2015,09,14,08,34,11.60
2015,09,14,08,36,11.40
2015,09,14,08,37,11.40
2015,09,14,08,38,11.40
2015,09,14,08,39,11.40
2015,09,14,08,41,11.40
2015,09,14,08,42,11.40
2015,09,14,08,43,11.40
2015,09,14,08,44,11.40
2015,09,14,08,45,11.40
2015,09,14,08,46,11.40
2015,09,14,08,47,11.40
2015,09,14,08,48,11.40
2015,09,14,08,49,11.40
2015,09,14,08,50,11.40
2015,09,14,08,51,11.40
2015,09,14,08,52,11.40
2015,09,14,08,53,11.40
2015,09,14,08,54,11.40
2015,09,14,08,55,11.40
2015,09,14,08,56,11.40
2015,09,14,08,57,11.40
2015,09,14,08,58,11.40
2015,09,14,08,59,11.40
2015,09,14,09,00,11.40
2015,09,14,09,01,11.40
2015,09,14,09,02,11.40
2015,09,14,09,03,11.40
2015,09,14,09,04,11.40
2015,09,14,09,05,11.40
2015,09,14,09,06,11.40
2015,09,14,09,07,11.40
2015,09,14,09,08,11.40
2015,09,14,09,09,11.40
2015,09,14,09,10,11.40
2015,09,14,09,11,11.40
2015,09,14,09,12,11.30
2015,09,14,09,13,11.30
2015,09,14,09,14,11.30
2015,09,14,09,15,11.30
2015,09,14,09,16,11.30
2015,09,14,09,17,11.20
2015,09,14,09,18,11.20
2015,09,14,09,19,11.20
2015,09,14,09,20,11.10
2015,09,14,09,21,11.10
2015,09,14,09,22,11.10
2015,09,14,09,23,11.10
2015,09,14,09,24,11.10
2015,09,14,09,25,11.10
2015,09,14,09,26,11.10
2015,09,14,09,27,10.90
2015,09,14,09,28,10.90
2015,09,14,09,29,10.90
2015,09,14,09,30,10.90
2015,09,14,09,31,10.90
2015,09,14,09,33,10.90
2015,09,14,09,34,10.80
2015,09,14,09,36,10.80
2015,09,14,09,37,10.80
2015,09,14,09,38,10.70
2015,09,14,09,39,10.70
2015,09,14,09,41,10.70
2015,09,14,09,42,10.70
2015,09,14,09,43,10.70
2015,09,14,09,44,10.70
2015,09,14,09,46,10.70
2015,09,14,09,47,10.70
2015,09,14,09,48,10.70
2015,09,14,09,49,10.70
2015,09,14,09,51,10.70
2015,09,14,09,52,10.80
2015,09,14,09,53,10.80
2015,09,14,09,54,10.80
2015,09,14,09,56,10.90
2015,09,14,09,57,10.90
2015,09,14,09,58,10.90
2015,09,14,09,59,10.90
2015,09,14,10,01,11.10
2015,09,14,10,02,11.10
2015,09,14,10,03,11.10
2015,09,14,10,04,11.10
2015,09,14,10,06,11.10
2015,09,14,10,07,11.20
2015,09,14,10,08,11.20
2015,09,14,10,09,11.20
2015,09,14,10,11,11.20
2015,09,14,10,12,11.20
2015,09,14,10,13,11.20
2015,09,14,10,14,11.20
2015,09,14,10,16,11.30
2015,09,14,10,17,11.30
2015,09,14,10,18,11.30
2015,09,14,10,19,11.30
2015,09,14,10,21,11.30
2015,09,14,10,22,11.30
2015,09,14,10,23,11.30
2015,09,14,10,24,11.30
2015,09,14,10,26,11.30
2015,09,14,10,27,11.30
2015,09,14,10,28,11.30
2015,09,14,10,29,11.30
2015,09,14,10,31,11.30
2015,09,14,10,32,11.30
2015,09,14,10,33,11.30
2015,09,14,10,34,11.30
2015,09,14,10,36,11.30
2015,09,14,10,37,11.30
2015,09,14,10,38,11.30
2015,09,14,10,39,11.30
2015,09,14,10,41,11.30
2015,09,14,10,42,11.30
2015,09,14,10,43,11.30
2015,09,14,10,44,11.30
2015,09,14,10,46,11.30
2015,09,14,10,47,11.30
2015,09,14,10,48,11.30
2015,09,14,10,49,11.30
2015,09,14,10,51,11.30
2015,09,14,10,52,11.30
2015,09,14,10,53,11.30
2015,09,14,10,54,11.30
2015,09,14,10,56,11.30
2015,09,14,10,57,11.30
2015,09,14,10,58,11.30
2015,09,14,10,59,11.30
2015,09,14,11,01,11.30
2015,09,14,11,02,11.30
2015,09,14,11,03,11.30
2015,09,14,11,04,11.30
2015,09,14,11,06,11.30
2015,09,14,11,07,11.30
2015,09,14,11,08,11.30
2015,09,14,11,09,11.20
2015,09,14,11,11,11.20
2015,09,14,11,12,11.20
2015,09,14,11,13,11.20
2015,09,14,11,14,11.20
2015,09,14,11,16,11.20
2015,09,14,11,17,11.20
2015,09,14,11,18,11.10
2015,09,14,11,19,11.10
2015,09,14,11,21,11.10
2015,09,14,11,22,11.10
2015,09,14,11,23,11.10
2015,09,14,11,24,11.10
2015,09,14,11,25,11.10
2015,09,14,11,26,11.10
2015,09,14,11,27,11.10
2015,09,14,11,28,11.10
2015,09,14,11,29,11.10
2015,09,14,11,30,11.10
2015,09,14,11,31,10.90
2015,09,14,11,32,10.90
2015,09,14,11,33,10.90
2015,09,14,11,34,10.90
2015,09,14,11,35,10.90
2015,09,14,11,36,10.90
2015,09,14,11,37,10.90
2015,09,14,11,38,10.90
2015,09,14,11,39,10.90
2015,09,14,11,40,10.90
2015,09,14,11,41,10.90
2015,09,14,11,42,10.90
2015,09,14,11,43,10.90
2015,09,14,11,44,10.90
2015,09,14,11,45,10.90
2015,09,14,11,46,10.80
2015,09,14,11,47,10.80
2015,09,14,11,48,10.80
2015,09,14,11,49,10.80
2015,09,14,11,50,10.80
2015,09,14,11,51,10.80
2015,09,14,11,52,10.80
2015,09,14,11,53,10.80
2015,09,14,11,54,10.80
2015,09,14,11,55,10.80
2015,09,14,11,56,10.70
2015,09,14,11,57,10.70
2015,09,14,11,58,10.70
2015,09,14,11,59,10.70
2015,09,14,12,00,10.70
2015,09,14,12,01,10.70
2015,09,14,12,02,10.70
2015,09,14,12,03,10.70
2015,09,14,12,04,10.70
2015,09,14,12,05,10.70
2015,09,14,12,06,10.70
2015,09,14,12,07,10.70
2015,09,14,12,08,10.60
2015,09,14,12,09,10.60
2015,09,14,12,10,10.60
2015,09,14,12,12,10.60
2015,09,14,12,14,10.60
2015,09,14,12,16,10.60
2015,09,14,12,17,10.60
2015,09,14,12,18,10.70
2015,09,14,12,19,10.60
2015,09,14,12,21,10.70
2015,09,14,12,22,10.70
2015,09,14,12,23,10.70
2015,09,14,12,24,10.70
2015,09,14,12,26,10.70
2015,09,14,12,27,10.70
2015,09,14,12,28,10.70
2015,09,14,12,29,10.60
2015,09,14,12,31,10.60
2015,09,14,12,32,10.60
2015,09,14,12,33,10.60
2015,09,14,12,34,10.60
2015,09,14,12,36,10.60
2015,09,14,12,37,10.60
2015,09,14,12,38,10.60
2015,09,14,12,39,10.60
2015,09,14,12,41,10.60
2015,09,14,12,42,10.60
2015,09,14,12,43,10.60
2015,09,14,12,44,10.60
2015,09,14,12,46,10.60
2015,09,14,12,47,10.60
2015,09,14,12,48,10.60
2015,09,14,12,49,10.60
2015,09,14,12,51,10.60
2015,09,14,12,52,10.60
2015,09,14,12,53,10.60
2015,09,14,12,54,10.60
2015,09,14,12,56,10.60
2015,09,14,12,57,10.60
2015,09,14,12,58,10.60
2015,09,14,12,59,10.60
2015,09,14,13,01,10.60
2015,09,14,13,02,10.60
2015,09,14,13,03,10.60
2015,09,14,13,04,10.60
2015,09,14,13,06,10.60
2015,09,14,13,07,10.60
2015,09,14,13,08,10.60
2015,09,14,13,09,10.60
2015,09,14,13,11,10.60
2015,09,14,13,12,10.60
2015,09,14,13,13,10.60
2015,09,14,13,14,10.60
2015,09,14,13,16,10.60
2015,09,14,13,17,10.60
2015,09,14,13,18,10.60
2015,09,14,13,19,10.60
2015,09,14,13,21,10.60
2015,09,14,13,22,10.60
2015,09,14,13,23,10.60
2015,09,14,13,24,10.60
2015,09,14,13,26,10.60
2015,09,14,13,27,10.60
2015,09,14,13,28,10.60
2015,09,14,13,29,10.60
2015,09,14,13,31,10.60
2015,09,14,13,32,10.60
2015,09,14,13,33,10.60
2015,09,14,13,34,10.60
2015,09,14,13,36,10.60
2015,09,14,13,37,10.60
2015,09,14,13,38,10.60
2015,09,14,13,39,10.60
2015,09,14,13,41,10.60
2015,09,14,13,42,10.60
2015,09,14,13,43,10.60
2015,09,14,13,44,10.60
2015,09,14,13,46,10.60
2015,09,14,13,47,10.60
2015,09,14,13,48,10.60
2015,09,14,13,49,10.60
2015,09,14,13,51,10.60
2015,09,14,13,52,10.60
2015,09,14,13,53,10.60
2015,09,14,13,54,10.60
2015,09,14,13,55,10.60
2015,09,14,13,56,10.60
2015,09,14,13,57,10.70
2015,09,14,13,58,10.70
2015,09,14,13,59,10.70
2015,09,14,14,00,10.80
2015,09,14,14,01,10.80
2015,09,14,14,02,10.80
2015,09,14,14,03,10.90
2015,09,14,14,04,10.90
2015,09,14,14,05,10.90
2015,09,14,14,06,10.90
2015,09,14,14,07,10.90
2015,09,14,14,08,10.90
2015,09,14,14,09,10.90
2015,09,14,14,10,10.90
2015,09,14,14,11,10.90
2015,09,14,14,12,10.90
2015,09,14,14,13,10.90
2015,09,14,14,14,10.90
2015,09,14,14,15,10.90
2015,09,14,14,16,11.10
2015,09,14,14,17,11.10
2015,09,14,14,18,11.10
2015,09,14,14,19,11.10
2015,09,14,14,20,11.10
2015,09,14,14,21,11.10
2015,09,14,14,22,11.10
2015,09,14,14,23,11.10
2015,09,14,14,24,11.10
2015,09,14,14,25,11.10
2015,09,14,14,26,11.10
2015,09,14,14,27,11.10
2015,09,14,14,28,11.10
2015,09,14,14,29,11.10
2015,09,14,14,30,11.10
2015,09,14,14,31,11.10
2015,09,14,14,32,11.10
2015,09,14,14,33,11.20
2015,09,14,14,34,11.20
2015,09,14,14,35,11.20
2015,09,14,14,37,11.20
2015,09,14,14,39,11.20
2015,09,14,14,41,11.20
2015,09,14,14,42,11.20
2015,09,14,14,43,11.20
2015,09,14,14,44,11.20
2015,09,14,14,46,11.20
2015,09,14,14,47,11.20
2015,09,14,14,48,11.20
2015,09,14,14,49,11.20
2015,09,14,14,51,11.20
2015,09,14,14,52,11.20
2015,09,14,14,53,11.20
2015,09,14,14,54,11.20
2015,09,14,14,56,11.20
2015,09,14,14,57,11.20
2015,09,14,14,58,11.20
2015,09,14,14,59,11.20
2015,09,14,15,01,11.20
2015,09,14,15,02,11.20
2015,09,14,15,03,11.20
2015,09,14,15,04,11.20
2015,09,14,15,06,11.20
2015,09,14,15,07,11.20
2015,09,14,15,08,11.20
2015,09,14,15,09,11.20
2015,09,14,15,11,11.20
2015,09,14,15,12,11.20
2015,09,14,15,13,11.20
2015,09,14,15,14,11.20
2015,09,14,15,16,11.30
2015,09,14,15,17,11.30
2015,09,14,15,18,11.30
2015,09,14,15,19,11.30
2015,09,14,15,21,11.40
2015,09,14,15,22,11.40
2015,09,14,15,23,11.40
2015,09,14,15,24,11.40
2015,09,14,15,26,11.40
2015,09,14,15,27,11.40
2015,09,14,15,28,11.40
2015,09,14,15,29,11.40
2015,09,14,15,31,11.40
2015,09,14,15,32,11.40
2015,09,14,15,33,11.40
2015,09,14,15,34,11.40
2015,09,14,15,36,11.40
2015,09,14,15,37,11.40
2015,09,14,15,38,11.40
2015,09,14,15,39,11.40
2015,09,14,15,41,11.40
2015,09,14,15,42,11.60
2015,09,14,15,43,11.60
2015,09,14,15,44,11.60
2015,09,14,15,46,11.60
2015,09,14,15,47,11.60
2015,09,14,15,48,11.60
2015,09,14,15,49,11.60
2015,09,14,15,51,11.60
2015,09,14,15,52,11.60
2015,09,14,15,53,11.60
2015,09,14,15,54,11.60
2015,09,14,15,56,11.60
2015,09,14,15,57,11.60
2015,09,14,15,58,11.60
2015,09,14,15,59,11.60
2015,09,14,16,01,11.60
2015,09,14,16,02,11.60
2015,09,14,16,03,11.60
2015,09,14,16,04,11.60
2015,09,14,16,06,11.60
2015,09,14,16,07,11.70
2015,09,14,16,08,11.70
2015,09,14,16,09,11.70
2015,09,14,16,11,11.70
2015,09,14,16,12,11.70
2015,09,14,16,13,11.70
2015,09,14,16,14,11.60
2015,09,14,16,16,11.60
2015,09,14,16,17,11.60
2015,09,14,16,18,11.60
2015,09,14,16,19,11.60
2015,09,14,16,21,11.40
2015,09,14,16,22,11.40
2015,09,14,16,23,11.40
2015,09,14,16,24,11.40
2015,09,14,16,25,11.40
2015,09,14,16,26,11.40
2015,09,14,16,27,11.30
2015,09,14,16,28,11.30
2015,09,14,16,29,11.30
2015,09,14,16,30,11.30
2015,09,14,16,31,11.30
2015,09,14,16,32,11.30
2015,09,14,16,33,11.30
2015,09,14,16,34,11.30
2015,09,14,16,35,11.30
2015,09,14,16,36,11.20
2015,09,14,16,37,11.20
2015,09,14,16,38,11.20
2015,09,14,16,39,11.20
2015,09,14,16,40,11.20
2015,09,14,16,41,11.20
2015,09,14,16,42,11.20
2015,09,14,16,43,11.20
2015,09,14,16,44,11.20
2015,09,14,16,45,11.20
2015,09,14,16,46,11.10
2015,09,14,16,47,11.10
2015,09,14,16,48,11.10
2015,09,14,16,49,11.10
2015,09,14,16,50,11.10
2015,09,14,16,51,11.10
2015,09,14,16,52,11.10
2015,09,14,16,53,11.10
2015,09,14,16,54,11.10
2015,09,14,16,55,11.10
2015,09,14,16,56,11.10
2015,09,14,16,57,11.10
2015,09,14,16,58,11.10
2015,09,14,16,59,11.10
2015,09,14,17,00,11.10
2015,09,14,17,01,11.10
2015,09,14,17,02,11.10
2015,09,14,17,03,10.90
2015,09,14,17,04,10.90
2015,09,14,17,05,10.90
2015,09,14,17,06,10.90
2015,09,14,17,07,10.90
2015,09,14,17,08,10.90
2015,09,14,17,09,10.90
2015,09,14,17,10,10.90
2015,09,14,17,11,10.90
2015,09,14,17,12,10.90
2015,09,14,17,13,10.90
2015,09,14,17,14,10.90
2015,09,14,17,15,10.90
2015,09,14,17,17,10.90
2015,09,14,17,18,10.90
2015,09,14,17,19,10.90
2015,09,14,17,21,10.90
2015,09,14,17,22,10.90
2015,09,14,17,23,10.90
2015,09,14,17,24,10.90
2015,09,14,17,26,10.90
2015,09,14,17,27,10.90
2015,09,14,17,28,10.90
2015,09,14,17,29,10.90
2015,09,14,17,31,10.80
2015,09,14,17,32,10.80
2015,09,14,17,33,10.80
2015,09,14,17,34,10.80
2015,09,14,17,36,10.90
2015,09,14,17,37,10.90
2015,09,14,17,38,10.90
2015,09,14,17,39,10.80
2015,09,14,17,41,10.80
2015,09,14,17,42,10.80
2015,09,14,17,43,10.80
2015,09,14,17,44,10.80
2015,09,14,17,46,10.80
2015,09,14,17,47,10.80
2015,09,14,17,48,10.80
2015,09,14,17,49,10.80
2015,09,14,17,51,10.80
2015,09,14,17,52,10.80
2015,09,14,17,53,10.70
2015,09,14,17,54,10.70
2015,09,14,17,56,10.70
2015,09,14,17,57,10.70
2015,09,14,17,58,10.70
2015,09,14,17,59,10.70
2015,09,14,18,01,10.70
2015,09,14,18,02,10.70
2015,09,14,18,03,10.60
2015,09,14,18,04,10.60
2015,09,14,18,06,10.60
2015,09,14,18,07,10.60
2015,09,14,18,08,10.60
2015,09,14,18,09,10.60
2015,09,14,18,11,10.60
2015,09,14,18,12,10.60
2015,09,14,18,13,10.60
2015,09,14,18,14,10.60
2015,09,14,18,16,10.60
2015,09,14,18,17,10.60
2015,09,14,18,18,10.60
2015,09,14,18,19,10.60
2015,09,14,18,21,10.60
2015,09,14,18,22,10.70
2015,09,14,18,23,10.70
2015,09,14,18,24,10.70
2015,09,14,18,26,10.70
2015,09,14,18,27,10.80
2015,09,14,18,28,10.80
2015,09,14,18,29,10.80
2015,09,14,18,31,10.90
2015,09,14,18,32,10.90
2015,09,14,18,33,10.90
2015,09,14,18,34,10.90
2015,09,14,18,36,11.10
2015,09,14,18,37,11.10
2015,09,14,18,38,11.20
2015,09,14,18,39,11.30
2015,09,14,18,41,11.40
2015,09,14,18,42,11.60
2015,09,14,18,43,11.60
2015,09,14,18,44,11.60
2015,09,14,18,46,11.80
2015,09,14,18,47,11.80
2015,09,14,18,48,11.80
2015,09,14,18,49,11.90
2015,09,14,18,51,12.00
2015,09,14,18,52,12.10
2015,09,14,18,53,12.10
2015,09,14,18,54,12.20
2015,09,14,18,56,12.30
2015,09,14,18,57,12.30
2015,09,14,18,58,12.40
2015,09,14,18,59,12.40
2015,09,14,19,00,12.50
2015,09,14,19,01,12.50
2015,09,14,19,02,12.60
2015,09,14,19,03,12.70
2015,09,14,19,04,12.70
2015,09,14,19,05,12.80
2015,09,14,19,06,12.80
2015,09,14,19,07,12.90
2015,09,14,19,08,12.90
2015,09,14,19,09,13.00
2015,09,14,19,10,13.00
2015,09,14,19,11,13.10
2015,09,14,19,12,13.10
2015,09,14,19,13,13.10
2015,09,14,19,14,13.20
2015,09,14,19,15,13.20
2015,09,14,19,16,13.30
2015,09,14,19,17,13.30
2015,09,14,19,18,13.30
2015,09,14,19,19,13.40
2015,09,14,19,20,13.50
2015,09,14,19,21,13.50
2015,09,14,19,22,13.50
2015,09,14,19,23,13.60
2015,09,14,19,24,13.60
2015,09,14,19,25,13.60
2015,09,14,19,26,13.60
2015,09,14,19,27,13.60
2015,09,14,19,28,13.70
2015,09,14,19,29,13.70
2015,09,14,19,30,13.70
2015,09,14,19,31,13.80
2015,09,14,19,32,13.80
2015,09,14,19,34,13.80
2015,09,14,19,36,13.80
2015,09,14,19,37,13.80
2015,09,14,19,38,13.80
2015,09,14,19,39,13.80
2015,09,14,19,41,14.00
2015,09,14,19,42,14.00
2015,09,14,19,43,14.10
2015,09,14,19,44,14.20
2015,09,14,19,46,14.20
2015,09,14,19,47,14.30
2015,09,14,19,48,14.40
2015,09,14,19,49,14.40
2015,09,14,19,51,14.50
2015,09,14,19,52,14.60
2015,09,14,19,53,14.60
2015,09,14,19,54,14.50
2015,09,14,19,56,14.40
2015,09,14,19,57,14.30
2015,09,14,19,58,14.20
2015,09,14,19,59,14.20
2015,09,14,20,01,14.10
2015,09,14,20,02,14.10
2015,09,14,20,03,14.00
2015,09,14,20,04,14.00
2015,09,14,20,06,13.80
2015,09,14,20,07,13.80
2015,09,14,20,08,13.70
2015,09,14,20,09,13.70
2015,09,14,20,11,13.50
2015,09,14,20,12,13.30
2015,09,14,20,13,13.30
2015,09,14,20,14,13.20
2015,09,14,20,16,13.00
2015,09,14,20,17,13.00
2015,09,14,20,18,12.90
2015,09,14,20,19,12.90
2015,09,14,20,21,12.80
2015,09,14,20,22,12.80
2015,09,14,20,23,12.80
2015,09,14,20,24,12.70
2015,09,14,20,26,12.60
2015,09,14,20,27,12.50
2015,09,14,20,28,12.50